When you browse on this site, cookies collect data to enhance your experience and personalize the content and advertising you see.
Visit our Privacy Policy to learn more. By continuing to use the site, you agree to this use of cookies and data.
  • In Slovakia
  • List of Countries
  • For 7 days
  • Water Temperature
  • Satellite Maps
  • Weather Map
  • Weather Widgets
  • user-avatar
    Login

    Hourly Weather Gluchowo

    Today, 17 July, Wednesday

    Time Temperature Precipitation Wind Pressure Humidity
    00:00 +12°C° 0 mm 3 mps 747 mmHg 95%
    01:00 +12°C° 0 mm 3 mps 747 mmHg 96%
    02:00 +12°C° 0.1 mm 4 mps 747 mmHg 96%
    03:00 +12°C° 0.1 mm 4 mps 746 mmHg 96%
    04:00 +12°C° 0.1 mm 5 mps 746 mmHg 96%
    05:00 +13°C° 0 mm 5 mps 746 mmHg 91%
    06:00 +14°C° 0 mm 5 mps 746 mmHg 87%
    07:00 +14°C° 0 mm 6 mps 746 mmHg 82%
    08:00 +15°C° 0.1 mm 6 mps 746 mmHg 77%
    09:00 +16°C° 0.1 mm 6 mps 746 mmHg 72%
    10:00 +17°C° 0.1 mm 6 mps 747 mmHg 66%
    11:00 +19°C° 0.1 mm 6 mps 747 mmHg 64%
    12:00 +19°C° 0.1 mm 6 mps 747 mmHg 63%
    13:00 +20°C° 0.1 mm 7 mps 747 mmHg 61%
    14:00 +20°C° 0 mm 6 mps 747 mmHg 59%
    15:00 +20°C° 0 mm 6 mps 747 mmHg 58%
    16:00 +21°C° 0 mm 5 mps 747 mmHg 56%
    17:00 +19°C° 0 mm 4 mps 747 mmHg 62%
    18:00 +18°C° 0 mm 4 mps 747 mmHg 68%
    19:00 +17°C° 0 mm 3 mps 748 mmHg 74%
    20:00 +14°C° 0 mm 3 mps 748 mmHg 78%
    21:00 +14°C° 0 mm 2 mps 748 mmHg 83%
    22:00 +12°C° 0 mm 2 mps 748 mmHg 88%
    23:00 +12°C° 0 mm 2 mps 749 mmHg 89%

    Tomorrow, 18 July, Thursday

    Time Temperature Precipitation Wind Pressure Humidity
    00:00 +10°C° 0 mm 2 mps 749 mmHg 90%
    01:00 +11°C° 0 mm 1 mps 749 mmHg 91%
    02:00 +9°C° 0 mm 2 mps 749 mmHg 92%
    03:00 +9°C° 0 mm 2 mps 749 mmHg 93%
    04:00 +9°C° 0 mm 2 mps 749 mmHg 94%
    05:00 +12°C° 0 mm 2 mps 749 mmHg 88%
    06:00 +13°C° 0 mm 2 mps 749 mmHg 83%
    07:00 +15°C° 0 mm 2 mps 749 mmHg 77%
    08:00 +17°C° 0 mm 2 mps 749 mmHg 71%
    09:00 +18°C° 0 mm 2 mps 749 mmHg 65%
    10:00 +20°C° 0 mm 2 mps 749 mmHg 59%
    11:00 +20°C° 0 mm 2 mps 749 mmHg 56%
    12:00 +22°C° 0 mm 1 mps 749 mmHg 54%
    13:00 +23°C° 0 mm 1 mps 749 mmHg 52%
    14:00 +23°C° 0 mm 1 mps 749 mmHg 52%
    15:00 +23°C° 0 mm 1 mps 749 mmHg 51%
    16:00 +23°C° 0 mm 1 mps 748 mmHg 51%
    17:00 +22°C° 0 mm 1 mps 748 mmHg 57%
    18:00 +21°C° 0 mm 1 mps 749 mmHg 63%
    19:00 +20°C° 0 mm 1 mps 749 mmHg 68%
    20:00 +19°C° 0 mm 1 mps 749 mmHg 73%
    21:00 +16°C° 0 mm 1 mps 749 mmHg 77%
    22:00 +15°C° 0 mm 1 mps 750 mmHg 81%
    23:00 +15°C° 0 mm 1 mps 750 mmHg 84%

    Day after tomorrow, 19 July, Friday

    Time Temperature Precipitation Wind Pressure Humidity
    00:00 +14°C° 0 mm 1 mps 750 mmHg 86%
    01:00 +14°C° 0 mm 1 mps 749 mmHg 88%
    02:00 +14°C° 0 mm 1 mps 750 mmHg 89%
    03:00 +13°C° 0 mm 1 mps 750 mmHg 89%
    04:00 +13°C° 0 mm 1 mps 750 mmHg 90%
    05:00 +15°C° 0 mm 1 mps 750 mmHg 83%
    06:00 +18°C° 0 mm 1 mps 750 mmHg 75%
    07:00 +20°C° 0 mm 1 mps 750 mmHg 68%
    08:00 +21°C° 0 mm 1 mps 750 mmHg 62%
    09:00 +23°C° 0 mm 1 mps 750 mmHg 56%
    10:00 +24°C° 0 mm 1 mps 750 mmHg 50%
    11:00 +25°C° 0 mm 1 mps 750 mmHg 47%
    12:00 +25°C° 0 mm 1 mps 750 mmHg 45%
    13:00 +24°C° 0 mm 0 mps 749 mmHg 43%
    14:00 +24°C° 0 mm 0 mps 749 mmHg 43%
    15:00 +26°C° 0 mm 1 mps 749 mmHg 42%
    16:00 +26°C° 0 mm 1 mps 749 mmHg 42%
    17:00 +25°C° 0 mm 1 mps 749 mmHg 49%
    18:00 +23°C° 0 mm 1 mps 749 mmHg 55%
    19:00 +21°C° 0 mm 2 mps 749 mmHg 62%
    20:00 +20°C° 0 mm 2 mps 749 mmHg 64%
    21:00 +19°C° 0 mm 2 mps 750 mmHg 65%
    22:00 +18°C° 0 mm 2 mps 750 mmHg 67%
    23:00 +18°C° 0 mm 2 mps 750 mmHg 67%

    20 July, Saturday

    Time Temperature Precipitation Wind Pressure Humidity
    00:00 +18°C° 0 mm 2 mps 750 mmHg 67%
    01:00 +18°C° 0 mm 2 mps 750 mmHg 66%
    02:00 +17°C° 0 mm 2 mps 750 mmHg 68%
    03:00 +16°C° 0 mm 2 mps 750 mmHg 70%
    04:00 +16°C° 0 mm 2 mps 750 mmHg 72%
    05:00 +18°C° 0 mm 2 mps 750 mmHg 69%
    06:00 +19°C° 0 mm 2 mps 751 mmHg 66%
    07:00 +21°C° 0 mm 2 mps 751 mmHg 64%
    08:00 +23°C° 0 mm 2 mps 751 mmHg 58%
    09:00 +25°C° 0 mm 2 mps 751 mmHg 53%
    10:00 +26°C° 0 mm 2 mps 751 mmHg 48%
    11:00 +27°C° 0 mm 2 mps 751 mmHg 46%
    12:00 +28°C° 0 mm 2 mps 751 mmHg 45%
    13:00 +28°C° 0 mm 2 mps 751 mmHg 43%
    14:00 +28°C° 0 mm 2 mps 751 mmHg 45%
    15:00 +28°C° 0 mm 2 mps 751 mmHg 46%
    16:00 +28°C° 0 mm 2 mps 751 mmHg 48%
    17:00 +26°C° 0 mm 2 mps 751 mmHg 54%
    18:00 +25°C° 0 mm 2 mps 751 mmHg 59%
    19:00 +24°C° 0 mm 3 mps 751 mmHg 65%
    20:00 +22°C° 0 mm 3 mps 751 mmHg 66%
    21:00 +21°C° 0 mm 3 mps 751 mmHg 67%
    22:00 +20°C° 0 mm 3 mps 751 mmHg 68%
    23:00 +19°C° 0 mm 3 mps 751 mmHg 70%

    21 July, Sunday

    Time Temperature Precipitation Wind Pressure Humidity
    00:00 +19°C° 0 mm 3 mps 751 mmHg 72%
    01:00 +19°C° 0 mm 3 mps 751 mmHg 74%
    02:00 +18°C° 0 mm 3 mps 751 mmHg 77%
    03:00 +18°C° 0 mm 3 mps 751 mmHg 79%
    04:00 +18°C° 0 mm 3 mps 751 mmHg 81%
    05:00 +19°C° 0 mm 3 mps 751 mmHg 78%
    06:00 +21°C° 0 mm 3 mps 751 mmHg 75%
    07:00 +22°C° 0 mm 4 mps 751 mmHg 72%
    08:00 +24°C° 0.5 mm 3 mps 751 mmHg 71%
    09:00 +25°C° 0.5 mm 3 mps 751 mmHg 70%
    10:00 +25°C° 0.5 mm 3 mps 751 mmHg 68%
    11:00 +26°C° 0.6 mm 2 mps 751 mmHg 68%
    12:00 +26°C° 0.6 mm 2 mps 751 mmHg 67%
    13:00 +26°C° 0.6 mm 1 mps 751 mmHg 66%
    14:00 +26°C° 1.2 mm 2 mps 751 mmHg 67%
    15:00 +26°C° 1.2 mm 2 mps 750 mmHg 68%
    16:00 +26°C° 1.2 mm 3 mps 750 mmHg 69%
    17:00 +25°C° 0.8 mm 2 mps 750 mmHg 73%
    18:00 +25°C° 0.8 mm 2 mps 750 mmHg 76%
    19:00 +24°C° 0.8 mm 1 mps 751 mmHg 80%
    20:00 +23°C° 0.1 mm 2 mps 751 mmHg 82%
    21:00 +21°C° 0.1 mm 2 mps 751 mmHg 85%
    22:00 +20°C° 0.1 mm 2 mps 751 mmHg 87%
    23:00 +20°C° 0 mm 3 mps 751 mmHg 89%

    22 July, Monday

    Time Temperature Precipitation Wind Pressure Humidity
    00:00 +19°C° 0 mm 3 mps 752 mmHg 92%
    01:00 +18°C° 0 mm 3 mps 752 mmHg 94%
    02:00 +18°C° 0 mm 3 mps 752 mmHg 95%
    03:00 +17°C° 0 mm 3 mps 752 mmHg 96%
    04:00 +17°C° 0 mm 3 mps 752 mmHg 97%
    05:00 +18°C° 0 mm 3 mps 753 mmHg 94%
    06:00 +19°C° 0 mm 3 mps 753 mmHg 91%
    07:00 +20°C° 0 mm 4 mps 753 mmHg 88%
    08:00 +21°C° 0.1 mm 4 mps 753 mmHg 81%
    09:00 +23°C° 0.1 mm 4 mps 754 mmHg 75%
    10:00 +25°C° 0.1 mm 5 mps 754 mmHg 68%
    11:00 +26°C° 0.3 mm 5 mps 754 mmHg 65%
    12:00 +26°C° 0.3 mm 5 mps 754 mmHg 61%
    13:00 +27°C° 0.3 mm 5 mps 754 mmHg 57%
    14:00 +27°C° 0.5 mm 5 mps 753 mmHg 60%
    15:00 +26°C° 0.5 mm 5 mps 753 mmHg 63%
    16:00 +26°C° 0.5 mm 5 mps 753 mmHg 66%
    17:00 +25°C° 0.2 mm 4 mps 753 mmHg 70%
    18:00 +23°C° 0.2 mm 4 mps 753 mmHg 75%
    19:00 +22°C° 0.2 mm 3 mps 754 mmHg 80%
    20:00 +20°C° 0 mm 3 mps 754 mmHg 84%
    21:00 +19°C° 0 mm 3 mps 754 mmHg 88%
    22:00 +17°C° 0 mm 3 mps 754 mmHg 92%
    23:00 +17°C° 0 mm 3 mps 754 mmHg 94%
    Show more